This demonstration page uses our WeatherBlox Daily Observations layout. Learn more.

Left ArrowRight Arrow

40.92501, -98.34201

Hourly Observations for February 20, 2022

Temp ( °F °C ) Dew Point ( °F °C ) Humidity (%) Winds ( mph kmh ) Pressure ( in mb ) Visibility ( mi km ) Precip ( " mm )
12:53 am 00:53 Clear 37 2.8 25 -3.9 62 62 SSW 18 30 29.81 1010 10 16 0.00 0.00
1:53 am 01:53 Clear 38 3.3 26 -3.3 62 62 SSW 17 28 29.78 1009 10 16 0.00 0.00
2:53 am 02:53 Clear 37 2.8 25 -3.9 62 62 SW 14 22 29.76 1008 10 16 0.00 0.00
3:53 am 03:53 Clear 38 3.3 24 -4.4 57 57 SW 17 28 29.74 1007 10 16 0.00 0.00
4:53 am 04:53 Clear 38 3.3 22 -5.6 52 52 SW 16 26 29.73 1007 10 16 0.00 0.00
5:53 am 05:53 Clear 37 2.8 21 -6.1 52 52 SW 14 22 29.74 1007 10 16 0.00 0.00
6:53 am 06:53 Clear 35 1.7 21 -6.1 57 57 WSW 13 20 29.75 1008 10 16 0.00 0.00
7:53 am 07:53 Sunny 34 1.1 21 -6.1 59 59 SW 8 13 29.77 1008 10 16 0.00 0.00
8:53 am 08:53 Sunny 40 4.4 21 -6.1 47 47 W 13 20 29.80 1009 10 16 0.00 0.00
9:53 am 09:53 Sunny 53 11.7 24 -4.4 32 32 NNW 14 22 29.80 1009 10 16 0.00 0.00
10:53 am 10:53 Sunny 58 14.4 25 -3.9 28 28 N 12 19 29.80 1009 10 16 0.00 0.00
11:53 am 11:53 Sunny 63 17.2 23 -5 22 22 N 17 28 29.80 1009 10 16 0.00 0.00
12:53 pm 12:53 Sunny 65 18.3 22 -5.6 19 19 N 10 17 29.80 1009 10 16 0.00 0.00
1:53 pm 13:53 Sunny 65 18.3 20 -6.7 18 18 NNE 7 11 29.78 1008 10 16 0.00 0.00
2:53 pm 14:53 Sunny 65 18.3 18 -7.8 16 16 NE 9 15 29.76 1008 10 16 0.00 0.00
3:53 pm 15:53 Sunny 65 18.3 19 -7.2 17 17 ESE 6 9 29.76 1008 10 16 0.00 0.00
4:53 pm 16:53 Sunny 65 18.3 20 -6.7 18 18 SSE 6 9 29.76 1008 10 16 0.00 0.00
5:53 pm 17:53 Sunny 59 15 23 -5 25 25 S 8 13 29.78 1008 10 16 0.00 0.00
6:53 pm 18:53 Clear 51 10.6 21 -6.1 31 31 SSE 7 11 29.80 1009 10 16 0.00 0.00
7:53 pm 19:53 Clear 48 8.9 22 -5.6 36 36 S 5 7 29.81 1009 10 16 0.00 0.00
8:53 pm 20:53 Clear 42 5.6 21 -6.1 43 43 SE 5 7 29.80 1009 10 16 0.00 0.00
9:53 pm 21:53 Clear 42 5.6 21 -6.1 43 43 SE 6 9 29.78 1008 10 16 0.00 0.00
10:53 pm 22:53 Clear 41 5 22 -5.6 47 47 SE 8 13 29.76 1008 10 16 0.00 0.00
11:53 pm 23:53 Clear 37 2.8 22 -5.6 54 54 ESE 7 11 29.74 1007 10 16 0.00 0.00

Powered by AerisWeather